• In Deutschland
  • Länderverzeichnis
  • Für 7 Tage
  • Wassertemperatur
  • Satellitenkarten
  • Wetterkarte
  • Widgets
  • user-avatar
    Anmelden

    Stündliche Wetter Eiterfeld

    Heute, 16 Dezember, Samstag

    Zeit Temperatur Niederschläge Wind Luftdruck Luftfeuchtigkeit
    00:00 -2°C° 0 mm 0 m/S 720 mmHg 95%
    01:00 -2°C° 0 mm 0 m/S 721 mmHg 95%
    02:00 -2°C° 0 mm 0 m/S 721 mmHg 95%
    03:00 -2°C° 0 mm 0 m/S 721 mmHg 95%
    04:00 -1°C° 0 mm 1 m/S 721 mmHg 95%
    05:00 -1°C° 0 mm 1 m/S 722 mmHg 94%
    06:00 -1°C° 0 mm 1 m/S 722 mmHg 94%
    07:00 +1°C° 0 mm 1 m/S 723 mmHg 94%
    08:00 +1°C° 0,1 mm 1 m/S 724 mmHg 92%
    09:00 +1°C° 0,1 mm 2 m/S 724 mmHg 91%
    10:00 +1°C° 0,1 mm 2 m/S 725 mmHg 90%
    11:00 +1°C° 0,1 mm 3 m/S 725 mmHg 87%
    12:00 +1°C° 0,1 mm 3 m/S 726 mmHg 85%
    13:00 0°C° 0,1 mm 4 m/S 726 mmHg 83%
    14:00 +1°C° 0,1 mm 3 m/S 727 mmHg 84%
    15:00 +1°C° 0,1 mm 3 m/S 727 mmHg 84%
    16:00 0°C° 0,1 mm 3 m/S 727 mmHg 85%
    17:00 0°C° 0 mm 3 m/S 728 mmHg 87%
    18:00 -1°C° 0 mm 3 m/S 728 mmHg 90%
    19:00 -1°C° 0 mm 3 m/S 729 mmHg 92%
    20:00 -1°C° 0 mm 3 m/S 729 mmHg 92%
    21:00 -1°C° 0 mm 3 m/S 730 mmHg 93%
    22:00 -1°C° 0 mm 3 m/S 730 mmHg 94%
    23:00 -1°C° 0 mm 3 m/S 730 mmHg 93%

    Morgen, 17 Dezember, Sonntag

    Zeit Temperatur Niederschläge Wind Luftdruck Luftfeuchtigkeit
    00:00 -2°C° 0 mm 4 m/S 731 mmHg 92%
    01:00 -2°C° 0 mm 4 m/S 731 mmHg 92%
    02:00 -2°C° 0 mm 4 m/S 731 mmHg 91%
    03:00 -2°C° 0 mm 4 m/S 731 mmHg 91%
    04:00 -2°C° 0 mm 4 m/S 732 mmHg 91%
    05:00 -2°C° 0 mm 4 m/S 732 mmHg 91%
    06:00 -2°C° 0 mm 4 m/S 732 mmHg 91%
    07:00 -1°C° 0 mm 3 m/S 733 mmHg 92%
    08:00 -1°C° 0 mm 3 m/S 733 mmHg 91%
    09:00 0°C° 0 mm 3 m/S 734 mmHg 90%
    10:00 0°C° 0 mm 3 m/S 735 mmHg 89%
    11:00 0°C° 0 mm 3 m/S 735 mmHg 87%
    12:00 +1°C° 0 mm 3 m/S 735 mmHg 85%
    13:00 +1°C° 0 mm 3 m/S 735 mmHg 84%
    14:00 +1°C° 0 mm 3 m/S 736 mmHg 85%
    15:00 0°C° 0 mm 3 m/S 736 mmHg 87%
    16:00 +1°C° 0 mm 2 m/S 736 mmHg 89%
    17:00 0°C° 0 mm 3 m/S 737 mmHg 90%
    18:00 -1°C° 0 mm 3 m/S 737 mmHg 91%
    19:00 -1°C° 0 mm 3 m/S 737 mmHg 93%
    20:00 -1°C° 0 mm 3 m/S 737 mmHg 93%
    21:00 -1°C° 0 mm 3 m/S 737 mmHg 93%
    22:00 -1°C° 0 mm 3 m/S 738 mmHg 93%
    23:00 -1°C° 0 mm 3 m/S 737 mmHg 92%

    übermorgen, 18 Dezember, Montag

    Zeit Temperatur Niederschläge Wind Luftdruck Luftfeuchtigkeit
    00:00 -2°C° 0 mm 4 m/S 737 mmHg 91%
    01:00 -2°C° 0 mm 4 m/S 737 mmHg 90%
    02:00 -2°C° 0,4 mm 5 m/S 736 mmHg 90%
    03:00 -2°C° 0,4 mm 5 m/S 735 mmHg 90%
    04:00 -3°C° 0,4 mm 6 m/S 734 mmHg 90%
    05:00 -3°C° 1 mm 6 m/S 734 mmHg 90%
    06:00 -3°C° 1 mm 6 m/S 734 mmHg 91%
    07:00 -2°C° 1 mm 5 m/S 733 mmHg 91%
    08:00 -1°C° 0,5 mm 5 m/S 733 mmHg 92%
    09:00 -1°C° 0,5 mm 4 m/S 734 mmHg 93%
    10:00 0°C° 0,5 mm 3 m/S 734 mmHg 94%
    11:00 +1°C° 0,1 mm 3 m/S 734 mmHg 94%
    12:00 +1°C° 0,1 mm 3 m/S 734 mmHg 93%
    13:00 +2°C° 0,1 mm 3 m/S 735 mmHg 93%
    14:00 +1°C° 0,1 mm 3 m/S 735 mmHg 94%
    15:00 +1°C° 0,1 mm 3 m/S 736 mmHg 94%
    16:00 +2°C° 0,1 mm 2 m/S 736 mmHg 95%
    17:00 +2°C° 0 mm 2 m/S 737 mmHg 95%
    18:00 +2°C° 0 mm 2 m/S 738 mmHg 96%
    19:00 +1°C° 0 mm 2 m/S 739 mmHg 96%
    20:00 +2°C° 0 mm 1 m/S 739 mmHg 96%
    21:00 +2°C° 0 mm 1 m/S 740 mmHg 96%
    22:00 +2°C° 0 mm 1 m/S 741 mmHg 96%
    23:00 +2°C° 0 mm 1 m/S 741 mmHg 96%

    19 Dezember, Dienstag

    Zeit Temperatur Niederschläge Wind Luftdruck Luftfeuchtigkeit
    00:00 +1°C° 0 mm 1 m/S 741 mmHg 95%
    01:00 0°C° 0 mm 1 m/S 742 mmHg 95%
    02:00 0°C° 0 mm 1 m/S 742 mmHg 95%
    03:00 0°C° 0 mm 1 m/S 742 mmHg 95%
    04:00 -1°C° 0 mm 1 m/S 742 mmHg 95%
    05:00 -1°C° 0 mm 1 m/S 743 mmHg 94%
    06:00 -1°C° 0 mm 1 m/S 743 mmHg 94%
    07:00 -1°C° 0 mm 1 m/S 743 mmHg 94%
    08:00 -1°C° 0 mm 1 m/S 744 mmHg 93%
    09:00 0°C° 0 mm 1 m/S 744 mmHg 92%
    10:00 0°C° 0 mm 1 m/S 745 mmHg 91%
    11:00 +1°C° 0 mm 1 m/S 745 mmHg 91%
    12:00 +1°C° 0 mm 2 m/S 745 mmHg 92%
    13:00 +2°C° 0 mm 2 m/S 745 mmHg 92%
    14:00 +2°C° 0 mm 2 m/S 745 mmHg 93%
    15:00 +2°C° 0 mm 2 m/S 745 mmHg 94%
    16:00 +1°C° 0 mm 2 m/S 745 mmHg 95%
    17:00 +1°C° 0 mm 2 m/S 745 mmHg 95%
    18:00 +1°C° 0 mm 2 m/S 745 mmHg 96%
    19:00 +1°C° 0 mm 2 m/S 745 mmHg 96%
    20:00 +1°C° 0 mm 2 m/S 745 mmHg 96%
    21:00 -1°C° 0 mm 2 m/S 745 mmHg 96%
    22:00 -1°C° 0 mm 2 m/S 745 mmHg 96%
    23:00 -1°C° 0 mm 2 m/S 745 mmHg 96%

    20 Dezember, Mittwoch

    Zeit Temperatur Niederschläge Wind Luftdruck Luftfeuchtigkeit
    00:00 -1°C° 0 mm 2 m/S 745 mmHg 96%
    01:00 -1°C° 0 mm 2 m/S 745 mmHg 96%
    02:00 -1°C° 0 mm 2 m/S 745 mmHg 95%
    03:00 -1°C° 0 mm 2 m/S 745 mmHg 95%
    04:00 -1°C° 0 mm 2 m/S 744 mmHg 95%
    05:00 +1°C° 0,2 mm 2 m/S 744 mmHg 95%
    06:00 +1°C° 0,2 mm 2 m/S 744 mmHg 95%
    07:00 +2°C° 0,2 mm 2 m/S 744 mmHg 95%
    08:00 +2°C° 0,6 mm 2 m/S 744 mmHg 96%
    09:00 +2°C° 0,6 mm 2 m/S 745 mmHg 97%
    10:00 +2°C° 0,6 mm 2 m/S 745 mmHg 97%
    11:00 +3°C° 0,1 mm 2 m/S 745 mmHg 98%
    12:00 +3°C° 0,1 mm 2 m/S 745 mmHg 98%
    13:00 +4°C° 0,1 mm 2 m/S 745 mmHg 98%
    14:00 +4°C° 0,1 mm 2 m/S 744 mmHg 98%
    15:00 +4°C° 0,1 mm 2 m/S 744 mmHg 98%
    16:00 +4°C° 0,1 mm 2 m/S 744 mmHg 98%
    17:00 +4°C° 0,1 mm 2 m/S 744 mmHg 98%
    18:00 +4°C° 0,1 mm 2 m/S 745 mmHg 98%
    19:00 +4°C° 0,1 mm 2 m/S 745 mmHg 98%
    20:00 +5°C° 0,1 mm 2 m/S 745 mmHg 98%
    21:00 +5°C° 0,1 mm 2 m/S 745 mmHg 98%
    22:00 +5°C° 0,1 mm 2 m/S 745 mmHg 98%
    23:00 +5°C° 0,1 mm 2 m/S 745 mmHg 98%

    21 Dezember, Donnerstag

    Zeit Temperatur Niederschläge Wind Luftdruck Luftfeuchtigkeit
    00:00 +4°C° 0,1 mm 3 m/S 745 mmHg 97%
    01:00 +4°C° 0,1 mm 3 m/S 745 mmHg 97%
    02:00 +4°C° 0 mm 3 m/S 745 mmHg 97%
    03:00 +4°C° 0 mm 3 m/S 745 mmHg 97%
    04:00 +5°C° 0 mm 3 m/S 745 mmHg 97%
    05:00 +5°C° 0 mm 3 m/S 745 mmHg 96%
    06:00 +5°C° 0 mm 4 m/S 744 mmHg 96%
    07:00 +5°C° 0 mm 4 m/S 744 mmHg 96%
    08:00 +5°C° 0,1 mm 4 m/S 744 mmHg 95%
    09:00 +5°C° 0,1 mm 4 m/S 744 mmHg 95%
    10:00 +5°C° 0,1 mm 4 m/S 744 mmHg 94%
    11:00 +6°C° 0 mm 4 m/S 744 mmHg 93%
    12:00 +6°C° 0 mm 4 m/S 744 mmHg 92%
    13:00 +6°C° 0 mm 5 m/S 744 mmHg 91%
    14:00 +6°C° 0 mm 4 m/S 743 mmHg 92%
    15:00 +6°C° 0 mm 4 m/S 743 mmHg 92%
    16:00 +6°C° 0 mm 4 m/S 743 mmHg 93%
    17:00 +6°C° 0 mm 4 m/S 743 mmHg 93%
    18:00 +6°C° 0 mm 4 m/S 743 mmHg 93%
    19:00 +6°C° 0 mm 5 m/S 742 mmHg 94%
    20:00 +6°C° 0,1 mm 5 m/S 742 mmHg 93%
    21:00 +6°C° 0,1 mm 5 m/S 742 mmHg 93%
    22:00 +6°C° 0,1 mm 5 m/S 742 mmHg 92%
    23:00 +6°C° 0,7 mm 5 m/S 742 mmHg 93%
    Mehr zeigen